Regional Weather Roundup
Issued by NWS

Home | Current Version | Previous Version | Text Only | Print | Product List | Glossary Off
Versions: 1 2 3 4 5 6 7 8 9 10 11 12 13 14 15 16 17 18 19 20 21 22 23 24 25 26 27 28 29 30 31 32 33 34 35 36 37 38 39 40 41 42 43 44 45 46 47 48 49 50

000
ASUS43 KFSD 010510
RWRSD

WEATHER ROUNDUP FOR SOUTH DAKOTA
NATIONAL WEATHER SERVICE SIOUX FALLS SD
1200 AM CDT WED APR 01 2015

NOTE: "FAIR" INDICATES FEW OR NO CLOUDS BELOW 12,000 FEET WITH NO
SIGNIFICANT WEATHER AND/OR OBSTRUCTIONS TO VISIBILITY.


SDZ001>005-009-010-012>017-010600-
NORTHWEST AND NORTH CENTRAL SOUTH DAKOTA

CITY           SKY/WX    TMP DP  RH WIND       PRES   REMARKS
BUFFALO          N/A     58  25  28 SE7       29.49F
FAITH            N/A     56  22  26 S14       29.56F
MOBRIDGE       MOCLDY    55  29  36 SE10      29.55F
$$

SDZ012>016-024>037-041>051-057-063-072>074-010600-
SOUTHWEST AND SOUTH CENTRAL SOUTH DAKOTA

CITY           SKY/WX    TMP DP  RH WIND       PRES   REMARKS
RAPID CTY ARPT CLOUDY    58  24  27 S5        29.60F
PIERRE         CLOUDY    60  26  27 SE6       29.59F
CUSTER         CLOUDY    53  13  20 S6        29.73F
ELLSWORTH AFB  CLOUDY    62  22  21 S7        29.59F
PHILIP         CLOUDY    60  22  23 SE8       29.58F
PINE RIDGE     MOCLDY    64  21  19 S12       29.65F
SPEARFISH      FAIR      66  16  14 SW17G24   29.60F
WINNER         FAIR      64  25  22 S21       29.65F
$$

SDZ004>011-016>023-039-040-010600-
NORTHEAST SOUTH DAKOTA

CITY           SKY/WX    TMP DP  RH WIND       PRES   REMARKS
ABERDEEN       MOCLDY    58  33  39 SE13      29.64F
WATERTOWN      MOCLDY    56  32  40 SE12      29.72F
BROOKINGS      MOCLDY    54  32  43 SE14      29.75F
SISSETON         N/A     45  34  65 S10       29.72F
$$

SDZ017-020-022-023-036>040-048>070-010600-
SOUTHEAST SOUTH DAKOTA

CITY           SKY/WX    TMP DP  RH WIND       PRES   REMARKS
SIOUX FALLS    PTCLDY    61  30  31 S15       29.75F
HURON          MOCLDY    59  32  36 S15G22    29.66F
CHAMBERLAIN    MOCLDY    63  30  29 S13       29.65F
MITCHELL       PTCLDY    60  32  34 S16       29.69F
YANKTON        CLEAR     63  32  31 S18       29.75F
$$

ABBREVIATIONS USED IN REMARKS
   TC - TEMPERATURE IN CELSIUS
  WCI - WIND CHILL INDEX
   HX - HEAT INDEX
  VSB - VISIBILITY



USA.gov is the U.S. government's official web portal to all federal, state and local government web resources and services.